STARLINK-35170

Last updated on Tue Oct 07 2025 00:02:06 GMT+0000 (Coordinated Universal Time)

1 65532U 25200N 25279.50003471 .00154717 00000+0 27990-2 0 9998 2 65532 97.6038 346.2118 0001474 100.5179 2.8540 15.49103479 5816

Satellite not in orbit

STARLINK-35170